Home > Weather > Debrecen > Past weeks

Flag for Hungary Past Weather in Debrecen, Hungary — Yesterday and Last 2 Weeks

Now
68 °F

Clear.


Feels Like: 68 °F
Forecast: 64 / 86 °F
Wind: No wind

Location: Debrecen Airport

Current Time: Jul 24, 2016 at 1:25:28 AM

Latest Report: Jul 24, 2016 at 12:15 AM


Visibility: 10 mi

Pressure: 30.04 "Hg

Humidity: 88%

Dew Point: 64 °F

Location of DebrecenLocation

Past Weather in Debrecen — Graph

°F

Debrecen Temperature Yesterday

Maximum temperature yesterday: 82 °F (at 11:45 AM)
Minimum temperature yesterday: 64 °F (at 5:15 AM)
Average temperature yesterday: 75 °F

High & Low Weather Summary for the Past Weeks

 TemperatureHumidityPressure
High91 °F (Jul 13, 4:15 PM)94% (Jul 14, 5:15 AM)30.12 "Hg (Jul 14, 5:15 AM)
Low54 °F (Jul 15, 5:15 AM)33% (Jul 9, 3:01 PM)29.68 "Hg (Jul 14, 6:45 AM)
Average71 °F66%29.98 "Hg
* Reported Jul 9 5:15 AM — Jul 23 11:45 PM, Debrecen, Weather by CustomWeather, © 2016

Note: Actual official high and low records may vary slightly from our data, if they occured in-between our weather recording intervals... More about our weather records

Advertising

Debrecen Weather History for the Previous 24 Hours

Scroll right to see more
 ConditionsComfort  
Time TempWeatherWind HumidityBarometerVisibility
11:45 PM
Sat, Jul 23
70 °FClear.No wind83%30.04 "Hg10 mi
11:15 PM70 °FClear.1 mph88%30.04 "Hg10 mi
10:45 PM72 °FClear.1 mph83%30.04 "Hg10 mi
10:15 PM72 °FClear.2 mph83%30.04 "Hg10 mi
9:15 PM75 °FSunny.3 mph74%30.01 "Hg10 mi
8:45 PM77 °FSunny.2 mph69%30.01 "Hg10 mi
8:15 PM79 °FSunny.2 mph65%30.01 "Hg10 mi
7:45 PM79 °FSunny.3 mph70%30.01 "Hg10 mi
7:15 PM81 °FSunny.5 mph66%30.01 "Hg10 mi
6:45 PM81 °FScattered clouds.3 mph66%30.01 "HgN/A
6:15 PM81 °FPartly sunny.2 mph66%30.01 "HgN/A
5:45 PM81 °FPartly sunny.2 mph70%30.01 "HgN/A
5:15 PM81 °FPartly sunny.2 mph66%30.01 "HgN/A
4:15 PM81 °FPassing clouds.3 mph66%30.01 "HgN/A
3:45 PM79 °FPassing clouds.5 mph70%30.01 "HgN/A
3:15 PM75 °FScattered clouds.7 mph78%30.04 "HgN/A
2:45 PM73 °FScattered clouds.7 mph83%30.04 "HgN/A
2:15 PM73 °FSprinkles. Partly sunny.9 mph78%30.04 "HgN/A
1:45 PM75 °FOvercast.10 mph74%30.04 "HgN/A
1:15 PM79 °FOvercast.7 mph65%30.04 "HgN/A
12:45 PM81 °FSprinkles. Partly sunny.5 mph62%30.04 "HgN/A
12:15 PM82 °FPartly sunny.3 mph58%30.04 "HgN/A
11:45 AM82 °FPartly sunny.2 mph55%30.04 "HgN/A
11:15 AM81 °FBroken clouds.2 mph66%30.04 "HgN/A
10:45 AM81 °FPartly sunny.2 mph66%30.04 "HgN/A
10:15 AM79 °FPartly sunny.3 mph70%30.04 "HgN/A
9:45 AM77 °FSunny.3 mph69%30.01 "Hg10 mi
9:15 AM75 °FSunny.1 mph74%30.04 "Hg10 mi
8:45 AM73 °FSunny.2 mph78%30.01 "Hg10 mi
8:15 AM72 °FSunny.2 mph78%30.01 "Hg10 mi
7:45 AM70 °FScattered clouds.2 mph83%30.01 "Hg5 mi
7:15 AM70 °FPartly sunny.2 mph83%30.01 "Hg5 mi
6:45 AM68 °FScattered clouds.2 mph83%30.01 "Hg4 mi
6:15 AM66 °FPassing clouds.3 mph88%30.01 "Hg4 mi
5:45 AM64 °FPassing clouds.5 mph94%30.01 "Hg4 mi
5:15 AM64 °FPassing clouds.2 mph94%30.01 "Hg4 mi
Weather by CustomWeather, © 2016

See weather overviewHow to use our weather pages